Torna al catalogo

THORAD AGENA D DEB

AttivoLEO
NORAD 18616·DEBRIS·🇺🇸 United States

Lanciato Sep 30, 1969 da Vandenberg Space Force Base

Loading…

Prossimi Passaggi (prossime 24 ore)

TLE

AggiornatoSource: Space-Track

Epoca: Sep 14, 2026, 08:26 UTC

1 18616U 69082LB  26257.35159874  .00000172  00000-0  16873-3 0  9999
2 18616  70.1410  27.0232 0159027 144.7487 216.4260 13.88004361956906

Traccia THORAD AGENA D DEB in tempo reale con AllMySat

Download on the App Store